Wind_Speed
9 10 12 11 11 13 15 16 18 19 20 21 23 23 24 25 27 29 31 33 35 38 39 39 40 40 41 42 43 43 44 44 44 43 42 41 40 40 40 40 40 39 39 39
8 10 11 11 12 14 16 17 18 19 21 23 23 24 25 26 28 30 31 34 36 38 39 40 40 41 42 43 44 45 45 45 45 44 42 41 40 40 40 40 39 39 38 37
9 10 10 11 12 14 15 17 19 21 22 24 24 25 25 26 28 30 32 34 37 38 39 40 41 42 43 44 45 46 46 46 46 44 42 41 40 40 40 39 38 37 37 37
10 10 11 11 13 14 16 19 20 21 23 24 25 25 25 26 28 30 32 35 37 39 40 41 42 43 44 45 46 46 47 47 46 45 43 41 40 40 39 38 37 37 37 37
12 12 11 13 13 15 17 19 21 22 24 26 26 26 25 27 29 31 34 36 38 39 40 41 42 43 45 46 46 47 47 47 46 44 42 41 40 39 39 38 37 37 37 37
14 13 13 11 13 16 18 20 21 23 24 25 26 27 27 29 30 32 35 37 38 40 41 42 42 44 45 46 46 47 47 47 46 44 43 41 40 39 39 38 37 37 37 36
15 16 17 17 18 19 21 22 23 24 25 25 26 27 28 29 31 33 35 37 39 40 42 42 43 44 45 46 46 47 47 47 46 44 43 42 41 40 39 38 37 36 35 34
21 21 22 22 23 23 24 24 24 24 25 26 26 27 28 30 32 34 36 38 39 41 42 43 43 44 45 46 46 46 46 46 46 44 43 42 41 40 39 38 37 35 33 33
23 24 24 24 25 25 26 25 25 25 25 26 27 28 29 31 33 35 37 38 40 41 42 43 44 45 45 46 46 46 46 46 45 44 43 42 41 40 38 36 36 35 33 32
26 26 26 26 25 25 25 25 24 25 26 26 27 29 31 33 35 37 38 40 41 42 43 43 44 45 45 46 46 45 45 45 45 44 42 42 41 38 36 36 35 35 33 32
27 26 25 24 25 25 25 25 26 26 27 28 30 31 33 35 37 39 40 41 42 43 43 44 44 45 45 46 45 45 45 45 44 43 42 41 40 38 36 36 36 35 33 31
27 26 26 25 26 27 27 27 28 28 29 31 32 34 35 37 38 40 41 42 43 43 44 44 45 45 45 45 46 45 45 44 43 42 41 40 38 37 36 36 36 35 32 30
28 27 27 27 28 29 30 30 31 31 32 33 35 36 38 40 40 41 41 43 44 44 44 45 45 45 45 45 46 46 45 44 43 41 40 39 37 36 35 35 35 35 32 29
28 28 29 30 31 31 32 33 34 34 35 36 37 38 40 41 42 42 42 44 45 45 45 46 46 46 46 46 46 46 44 43 42 40 39 38 36 35 34 34 34 33 30 27
29 29 31 32 33 33 34 35 36 37 38 38 39 40 41 42 43 43 44 45 46 45 46 47 48 47 47 46 46 45 43 42 40 39 37 36 35 34 33 33 33 31 28 26
30 31 32 33 34 35 36 37 39 40 41 42 43 43 44 45 45 46 46 47 47 47 47 49 49 48 47 45 45 43 42 40 38 37 36 35 34 33 31 31 31 30 28 25
32 33 33 35 36 37 39 40 42 43 44 44 46 46 47 47 48 48 48 48 49 50 50 50 49 47 46 45 44 42 40 38 37 36 34 33 32 30 29 28 28 28 26 24
34 35 36 37 39 41 42 44 45 46 46 47 48 49 49 49 49 49 50 51 52 51 50 50 49 47 46 45 42 40 38 36 35 34 32 30 29 28 27 26 26 26 25 23
38 39 41 42 44 45 46 47 48 49 50 51 51 51 51 52 53 53 53 53 52 51 50 49 48 47 45 43 40 38 36 34 33 31 29 28 27 26 25 24 24 24 23 22
43 44 45 46 47 48 49 50 51 52 53 53 52 52 53 54 55 55 54 53 51 50 49 48 46 44 42 40 39 37 34 32 31 29 27 26 24 23 22 21 21 22 22 20
48 48 48 49 50 51 52 54 55 56 55 55 55 55 56 56 56 55 53 51 49 48 47 45 43 42 39 38 37 35 32 30 28 27 25 24 22 21 20 19 19 19 20 19
50 50 51 51 53 54 56 57 58 58 58 58 58 58 57 56 55 53 50 48 46 45 44 42 40 38 36 35 34 32 30 28 26 25 23 21 20 18 17 17 17 17 17 17
52 53 54 55 56 57 58 58 59 59 59 58 57 56 55 54 52 49 46 44 43 42 40 39 36 34 33 31 30 29 27 26 24 23 21 19 18 17 15 15 16 16 16 16
54 56 57 58 59 59 59 59 59 59 58 57 56 54 52 50 48 46 43 41 40 38 37 35 33 32 31 29 28 26 25 24 23 21 19 17 16 14 13 14 14 13 13 13
58 59 59 59 60 60 60 59 58 57 56 55 53 51 49 47 44 42 40 38 37 35 34 32 31 29 28 26 25 24 23 22 21 20 17 15 14 13 11 11 11 11 11 11
61 61 61 60 60 59 59 58 57 55 54 52 50 48 46 43 41 39 37 36 34 33 31 29 27 26 25 24 23 22 22 21 19 18 16 14 12 11 10 9 9 8 8 9
62 62 62 62 61 60 59 57 56 54 52 50 47 45 42 40 38 36 35 33 31 30 28 27 26 24 22 21 21 20 19 19 17 16 14 13 11 10 9 8 7 7 6 6
Wind_Direction
297 292 294 298 301 304 311 319 322 328 334 336 334 331 328 326 324 325 327 328 327 327 328 329 330 331 332 333 333 332 331 330 328 326 323 320 317 314 311 308 305 303 301 297
300 294 296 296 296 300 309 315 321 328 332 329 327 325 324 324 323 324 325 326 326 327 329 330 332 332 332 333 333 333 332 331 330 328 325 321 318 316 314 311 309 306 304 299
315 307 302 292 290 296 304 312 319 324 325 321 321 321 322 321 320 322 324 325 326 328 329 330 331 332 332 332 333 333 332 332 331 329 326 323 320 318 316 314 312 309 306 302
320 314 307 296 297 299 304 311 318 319 319 318 318 319 319 319 320 322 324 325 327 329 330 330 331 331 332 332 332 333 333 333 332 330 328 325 323 321 319 318 314 311 308 305
320 316 311 307 308 305 306 312 318 318 318 317 316 318 320 321 320 321 324 326 327 329 329 330 331 331 332 333 333 333 334 334 333 332 330 327 325 323 322 321 317 314 311 308
318 315 315 319 311 308 311 315 317 317 317 316 317 319 320 319 320 322 324 326 327 329 329 330 331 331 332 333 333 334 334 335 334 333 331 330 328 326 325 323 320 317 314 312
320 322 322 322 319 318 319 319 319 318 315 314 314 316 317 318 319 321 323 325 327 328 329 330 330 331 332 333 334 334 335 336 336 334 333 332 331 329 327 325 323 321 319 316
315 316 315 316 317 318 318 317 315 313 312 312 313 315 316 317 318 321 323 325 327 328 329 329 330 331 332 333 334 334 335 336 337 335 334 334 333 332 330 329 328 326 322 319
302 305 308 310 313 314 314 313 311 310 309 311 312 314 315 317 318 320 322 324 326 327 328 329 329 330 332 333 334 335 336 337 337 336 336 336 335 335 334 333 333 330 327 323
296 300 303 306 308 309 308 309 309 308 308 309 311 312 314 316 318 319 322 324 325 326 328 329 329 330 332 333 335 336 337 337 338 337 337 337 338 337 337 336 336 335 332 328
290 295 299 302 303 304 305 306 307 307 307 308 310 311 313 315 317 319 321 323 324 325 327 329 330 331 332 334 335 336 337 338 338 338 338 338 339 339 338 339 339 338 336 333
289 294 297 299 301 302 304 305 305 305 306 307 309 310 312 314 316 318 320 322 323 325 326 328 329 330 332 333 335 335 336 337 338 338 338 339 340 340 340 341 341 341 340 338
290 294 295 297 298 299 301 303 304 304 305 306 308 309 311 313 316 318 319 321 323 324 325 327 328 330 331 332 333 334 335 336 337 338 338 340 341 341 343 344 344 344 344 343
287 290 290 292 294 296 298 299 301 302 303 304 306 308 310 312 315 317 318 320 321 323 324 326 327 328 329 330 332 332 333 334 336 337 339 340 341 343 344 346 347 348 349 350
284 284 286 289 291 293 295 296 298 300 302 304 306 307 309 312 314 316 317 318 319 320 322 324 325 325 326 328 330 330 331 333 335 336 338 340 341 343 346 348 350 352 353 354
282 283 285 288 290 292 294 296 299 301 303 305 307 308 309 310 312 313 314 315 317 318 319 321 322 323 324 326 327 328 329 331 333 335 337 339 341 344 347 349 352 354 356 358
285 286 287 288 290 292 294 296 299 301 303 305 306 307 307 308 310 311 311 312 313 314 315 317 319 320 321 323 325 325 327 329 332 333 335 338 340 344 347 350 354 357 358 1
286 285 286 286 288 289 291 293 295 299 300 302 303 305 306 306 307 307 307 309 310 312 313 314 316 317 317 319 321 323 324 327 330 332 334 336 339 343 348 351 355 359 2 4
280 280 281 283 284 286 288 290 292 295 296 298 300 300 301 303 304 305 306 307 308 308 310 311 312 313 314 316 318 320 322 325 328 330 332 334 338 343 348 353 358 2 6 8
278 279 280 281 283 284 285 287 289 291 292 293 294 295 297 299 301 303 304 304 305 305 307 307 309 310 312 314 315 316 319 322 325 328 329 332 336 341 346 350 356 3 6 9
280 281 281 282 282 283 284 285 287 288 289 289 290 292 294 297 299 300 301 302 302 302 303 304 306 307 308 310 313 315 316 319 322 325 327 329 333 338 344 349 353 359 4 7
283 283 282 281 280 280 281 282 284 285 286 287 289 291 294 296 297 297 299 299 299 299 299 300 302 303 305 307 310 312 314 316 319 322 325 327 331 336 340 345 351 356 1 5
283 282 281 280 279 279 280 281 282 284 286 287 289 291 292 294 294 295 296 296 295 296 298 297 298 299 301 303 307 310 312 313 316 318 320 323 328 333 337 342 347 353 360 6
280 279 279 279 280 280 281 282 283 284 286 287 288 289 290 291 292 292 293 293 292 293 295 293 293 294 296 299 303 306 308 310 312 314 315 317 322 328 333 339 345 352 358 7
280 280 280 281 281 282 283 283 284 285 286 286 287 288 289 289 290 289 289 288 287 289 290 289 290 291 293 296 300 302 304 306 308 309 309 310 315 322 326 333 341 350 356 4
284 284 284 285 285 285 285 285 285 286 286 286 286 286 286 286 285 284 284 283 284 285 284 284 285 286 289 293 296 298 300 302 303 305 304 302 304 311 316 324 333 342 353 4
285 285 286 286 286 286 287 287 287 287 286 285 284 283 282 281 280 279 277 278 279 279 278 278 279 279 283 288 292 295 297 298 299 300 298 296 294 297 302 307 316 325 338 350
Height
5859 5858 5856 5855 5854 5853 5851 5849 5847 5845 5843 5841 5838 5835 5832 5829 5825 5820 5816 5811 5806 5801 5794 5787 5780 5773 5765 5757 5749 5741 5733 5725 5717 5709 5701 5693 5686 5679 5672 5665 5659 5653 5648 5643
5857 5855 5854 5853 5852 5850 5848 5846 5844 5842 5841 5838 5835 5832 5829 5825 5820 5816 5812 5807 5801 5795 5788 5781 5774 5766 5758 5751 5743 5734 5726 5717 5709 5700 5692 5684 5676 5669 5662 5655 5648 5642 5636 5630
5854 5852 5851 5850 5849 5847 5845 5844 5842 5840 5839 5835 5831 5828 5825 5821 5817 5812 5808 5802 5796 5789 5782 5775 5767 5760 5752 5744 5736 5727 5718 5709 5701 5692 5684 5675 5667 5660 5652 5645 5637 5631 5625 5619
5851 5850 5849 5849 5845 5844 5842 5840 5839 5837 5834 5830 5827 5824 5821 5817 5812 5807 5802 5797 5790 5783 5776 5769 5761 5753 5745 5737 5728 5720 5711 5702 5693 5684 5675 5667 5658 5650 5642 5635 5627 5620 5614 5607
5847 5846 5845 5844 5842 5841 5839 5837 5835 5832 5828 5825 5821 5818 5815 5811 5807 5802 5797 5791 5784 5777 5770 5762 5755 5747 5738 5730 5721 5712 5703 5694 5685 5676 5667 5659 5650 5641 5633 5625 5618 5610 5603 5596
5844 5842 5841 5842 5839 5837 5836 5832 5830 5827 5823 5819 5816 5813 5810 5806 5801 5796 5790 5784 5778 5771 5763 5756 5748 5740 5732 5723 5714 5705 5696 5687 5677 5668 5659 5651 5642 5633 5624 5616 5608 5600 5592 5585
5840 5838 5837 5836 5834 5832 5830 5829 5825 5821 5818 5815 5811 5808 5804 5800 5795 5790 5784 5778 5771 5764 5757 5750 5742 5734 5725 5716 5707 5698 5689 5679 5670 5660 5652 5643 5634 5624 5616 5607 5599 5591 5583 5575
5835 5833 5834 5831 5828 5827 5825 5822 5819 5816 5812 5809 5805 5802 5798 5793 5789 5783 5778 5772 5765 5758 5750 5743 5735 5727 5718 5710 5701 5691 5682 5672 5663 5653 5644 5635 5626 5617 5608 5599 5590 5582 5574 5567
5832 5831 5828 5825 5822 5820 5818 5816 5813 5810 5806 5803 5799 5796 5792 5787 5782 5777 5771 5765 5758 5751 5744 5736 5728 5720 5712 5703 5694 5684 5675 5666 5656 5646 5637 5628 5619 5610 5601 5592 5583 5575 5567 5560
5825 5824 5822 5820 5817 5815 5812 5809 5807 5803 5800 5797 5793 5789 5785 5781 5776 5770 5764 5758 5751 5744 5737 5729 5721 5713 5705 5696 5687 5678 5669 5660 5650 5641 5631 5622 5613 5603 5595 5586 5577 5569 5560 5553
5819 5818 5816 5814 5811 5808 5805 5803 5800 5796 5793 5790 5786 5783 5778 5774 5768 5763 5757 5751 5744 5737 5730 5722 5714 5706 5698 5689 5681 5672 5663 5654 5644 5635 5626 5617 5607 5598 5590 5581 5571 5563 5555 5547
5812 5811 5808 5806 5803 5800 5798 5795 5792 5790 5786 5783 5779 5775 5771 5766 5761 5755 5749 5743 5736 5730 5723 5715 5707 5699 5691 5683 5675 5666 5657 5648 5639 5630 5621 5612 5604 5594 5585 5576 5567 5558 5550 5542
5804 5802 5800 5798 5795 5792 5790 5787 5785 5782 5779 5776 5772 5767 5763 5758 5753 5747 5741 5735 5728 5722 5715 5707 5700 5692 5684 5676 5668 5660 5652 5643 5634 5625 5617 5608 5600 5591 5583 5574 5564 5555 5547 5539
5796 5794 5792 5789 5787 5785 5782 5779 5777 5774 5771 5767 5764 5759 5754 5749 5744 5738 5733 5726 5720 5713 5707 5700 5692 5685 5677 5670 5662 5654 5645 5637 5629 5621 5613 5605 5596 5588 5580 5571 5563 5554 5545 5537
5789 5786 5783 5781 5779 5776 5773 5771 5768 5765 5761 5758 5754 5750 5745 5740 5734 5729 5723 5717 5711 5705 5698 5691 5685 5677 5670 5663 5655 5648 5640 5632 5624 5616 5609 5601 5593 5585 5577 5569 5560 5552 5544 5537
5780 5777 5775 5772 5770 5767 5764 5761 5758 5754 5751 5747 5743 5739 5734 5729 5724 5719 5713 5707 5702 5696 5689 5683 5677 5670 5663 5656 5649 5641 5634 5627 5619 5612 5605 5598 5590 5583 5575 5568 5560 5552 5545 5538
5770 5767 5765 5762 5760 5757 5754 5751 5747 5744 5740 5736 5732 5728 5723 5719 5714 5709 5703 5698 5692 5686 5680 5674 5668 5662 5655 5649 5642 5635 5628 5621 5615 5608 5601 5595 5588 5581 5574 5567 5560 5552 5546 5539
5757 5755 5753 5751 5749 5746 5743 5740 5736 5733 5729 5725 5721 5717 5712 5708 5703 5698 5693 5687 5682 5677 5671 5665 5659 5653 5647 5641 5635 5629 5623 5616 5610 5604 5598 5592 5585 5579 5573 5566 5560 5553 5547 5541
5744 5742 5740 5738 5736 5734 5731 5728 5724 5721 5718 5714 5709 5705 5701 5696 5691 5687 5682 5677 5671 5666 5660 5655 5650 5644 5639 5633 5628 5622 5617 5611 5605 5600 5594 5589 5583 5577 5572 5566 5560 5554 5548 5543
5732 5731 5729 5726 5723 5721 5717 5714 5711 5708 5704 5700 5696 5692 5688 5684 5679 5675 5670 5666 5660 5655 5650 5645 5640 5635 5630 5625 5621 5616 5611 5606 5601 5596 5591 5586 5581 5576 5570 5565 5560 5555 5550 5544
5719 5717 5715 5713 5710 5707 5703 5700 5696 5693 5689 5686 5682 5678 5675 5671 5667 5662 5657 5653 5648 5643 5639 5634 5630 5626 5622 5617 5613 5609 5605 5600 5596 5592 5587 5583 5578 5574 5569 5565 5560 5556 5551 5546
5705 5703 5700 5698 5695 5691 5688 5684 5680 5677 5674 5670 5667 5664 5660 5657 5653 5648 5644 5640 5636 5631 5627 5624 5620 5617 5613 5609 5606 5602 5598 5595 5591 5587 5583 5579 5576 5572 5568 5564 5560 5556 5552 5547
5688 5685 5682 5679 5676 5673 5670 5667 5663 5660 5657 5654 5651 5648 5645 5642 5638 5634 5632 5628 5623 5620 5616 5613 5610 5607 5604 5601 5598 5595 5592 5589 5586 5582 5579 5576 5573 5569 5566 5562 5559 5556 5552 5548
5668 5665 5662 5659 5656 5654 5651 5649 5646 5643 5640 5637 5635 5632 5629 5626 5624 5620 5617 5614 5611 5608 5605 5602 5600 5598 5596 5593 5591 5589 5586 5583 5580 5578 5575 5572 5570 5567 5564 5561 5558 5555 5552 5549
5648 5645 5642 5640 5637 5634 5632 5630 5627 5625 5623 5620 5618 5615 5613 5611 5609 5606 5603 5601 5599 5597 5595 5592 5591 5589 5587 5585 5584 5582 5580 5577 5575 5573 5571 5569 5567 5564 5562 5560 5557 5555 5553 5550
5627 5625 5622 5620 5617 5614 5612 5610 5608 5606 5604 5602 5601 5599 5597 5595 5594 5592 5590 5589 5587 5586 5584 5583 5582 5581 5579 5578 5576 5575 5573 5572 5570 5568 5566 5565 5563 5562 5560 5558 5556 5555 5553 5551
5607 5605 5602 5599 5596 5594 5592 5590 5588 5587 5585 5584 5583 5582 5581 5580 5579 5578 5577 5577 5576 5575 5574 5573 5573 5572 5571 5571 5569 5568 5567 5566 5565 5563 5562 5561 5560 5559 5558 5556 5555 5554 5552 5551